Aérodrome :
LOGIN :

S'inscrire | Disclaimer

   EN    FR    IT 

 










Légende :    VFR   VFR Marginal   IFR   IFR Intensif   IFR Très Intensif
Visi : 
Plafond : 
>= 8 km
>= 3000ft
5 à 8 km
1000 à 3000 ft
1500m à 5 km
500 à 1000 ft
800 à 1500m
200 à 500 ft
< 800m
< 200 ft
Symboles :   Orages  Brouillard  Fortes neiges  Fortes précipitations  Vent > 20 kt
SIGMETs :   Divers  Orages  Givrage  Turbulence  Onde Orograph.  Cendres Volcan.







- Altitude de l'aérodrome : 446 ft
- Code IATA : VNE
- Voir les cartes d'approche


LFRV - Vannes-Meucon

DERNIER METAR :
  • 221200Z AUTO 03016KT 9999 OVC012 15/12 Q1032

METARs EXPIRÉS :
  • 221130Z AUTO 03015KT 9999 OVC010 14/12 Q1033
  • 221100Z AUTO 03016KT 9999 OVC010 14/12 Q1033
  • 221030Z AUTO 03015KT 9999 OVC009 14/12 Q1032
  • 221000Z AUTO 03016KT 9999 OVC008 14/12 Q1032
  • 220930Z AUTO 02014KT 9999 OVC008 14/13 Q1032

TAF N/A
Pas de NOTAMs connus pour ce terrain.



MET'MAP, la Météo Aéronautique d'un coup d'oeil ! - Copyright ORBIFLY Décembre 2007 - Disclaimer

ORBIFLY MET'MAP TEAM :

Programmation & Développement : Alexandra Zaïnal
Conception & Développement : Baudouin d'Aumeries
Co-Programmation & Développement : Marc-Olivier Méhu
Soutien technique & logistique : Manuel Goepfert

Contact : metmap@orbifly.com




SOURCES & CREDITS :

   NOAA